TimeCST,TemperatureF,Dew PointF,Humidity,Sea Level PressureIn,VisibilityMPH,Wind Direction,Wind SpeedMPH,Gust SpeedMPH,PrecipitationIn,Events,Conditions,WindDirDegrees,DateUTC
12:00 AM,80,78,91,30.01,12,Calm,Calm,,,,Scattered Clouds,,2012-07-31 06:00:00
3:00 AM,78,77,94,29.96,12,Calm,Calm,,,,Scattered Clouds,,2012-07-31 09:00:00
5:00 AM,77.0,77.0,100,29.95,6.2,Calm,Calm,-,N/A,,Mostly Cloudy,0,2012-07-31 11:00:00
6:00 AM,78.8,77.0,94,29.95,6.2,Calm,Calm,-,N/A,,Scattered Clouds,0,2012-07-31 12:00:00
7:00 AM,80.6,78.8,94,29.98,6.2,Calm,Calm,-,N/A,,Scattered Clouds,0,2012-07-31 13:00:00
8:00 AM,84.2,77.0,79,29.98,6.2,East,4.6,-,N/A,,Scattered Clouds,80,2012-07-31 14:00:00
9:00 AM,87,78,69,29.99,12,East,6.9,,,,Partly Cloudy,80,2012-07-31 15:00:00
9:00 AM,87.8,78.8,75,29.98,6.2,East,6.9,-,N/A,,Scattered Clouds,80,2012-07-31 15:00:00
10:00 AM,87.8,78.8,75,29.98,6.2,ENE,9.2,-,N/A,,Scattered Clouds,70,2012-07-31 16:00:00
11:00 AM,87.8,77.0,70,29.98,6.2,ENE,10.4,-,N/A,,Scattered Clouds,60,2012-07-31 17:00:00
12:00 PM,89,77,61,29.98,12,East,11.5,,,,,80,2012-07-31 18:00:00
12:00 PM,89.6,77.0,66,29.98,6.2,East,11.5,-,N/A,,Scattered Clouds,80,2012-07-31 18:00:00
1:00 PM,87.8,78.8,75,29.96,6.2,East,9.2,-,N/A,,Mostly Cloudy,80,2012-07-31 19:00:00
2:00 PM,89.6,78.8,70,29.95,6.2,East,10.4,-,N/A,,Scattered Clouds,90,2012-07-31 20:00:00
3:00 PM,89,79,65,29.96,12,East,11.5,,,,Partly Cloudy,80,2012-07-31 21:00:00
3:00 PM,89.6,78.8,70,29.95,6.2,East,11.5,-,N/A,,Scattered Clouds,80,2012-07-31 21:00:00
4:00 PM,87.8,78.8,75,29.94,6.2,East,10.4,-,N/A,,Scattered Clouds,90,2012-07-31 22:00:00
5:00 PM,87.8,78.8,75,29.94,6.2,East,9.2,-,N/A,,Mostly Cloudy,90,2012-07-31 23:00:00
6:00 PM,85,79,77,29.96,14,East,6.9,,,,Scattered Clouds,100,2012-08-01 00:00:00
6:00 PM,86.0,78.8,79,29.96,6.2,East,6.9,-,N/A,,Mostly Cloudy,100,2012-08-01 00:00:00